Location: Chillicothe
(39.7950°N, 93.5520°W)
Time: 02:24:04
(UTC-06:00)

BEESAT - Pass Details

Date: 21 November 2019
Orbit: 701 x 709 km, 98.6° (Epoch: 14 December)

Event Time Altitude Azimuth Distance (km) Brightness Sun altitude
Rises 17:45:01 0° 13° (NNE) 3,097 ? -9.9°
Reaches altitude 10° 17:47:16 10° 14° (NNE) 2,176 ? -10.3°
Maximum altitude 17:52:03 86° 104° (ESE) 711 ? -11.2°
Drops below altitude 10° 17:56:48 10° 193° (SSW) 2,165 ? -12.0°
Sets 17:59:03 0° 194° (SSW) 3,080 ? -12.5°
